Zurück zum Katalog

STARLINK-35192

AktivKommunikationVLEO
NORAD 65933·PAYLOAD·🇺🇸 United States

Gestartet Oct 8, 2025 von Vandenberg Space Force Base

Loading…

Nächste Überflüge (nächste 24 Stunden)

TLE

AktuellSource: CelesTrak SupGP

Epoche: Sep 14, 2026, 14:34 UTC

1 65933C 25225Z   26257.60743056 -.00147160  00000+0 -43491-2 0  2575
2 65933  53.1592   5.0123 0001178  82.7245  33.4026 15.34455297    13

Verfolge STARLINK-35192 in Echtzeit mit AllMySat

Download on the App Store